Norwich, United Kingdom

12:37 PM GMT on January 18, 2017 (GMT +0000)
Norwich

Weather History for EGSH - June, 2014

Change the Weather History Date:

Saturday, June 7, 2014

  Actual Average Record
Temperature  
Mean Temperature 62 °F -  
Max Temperature 73 °F 66 °F 80 °F (2004)
Min Temperature 51 °F 52 °F 42 °F (2015)
Degree Days  
Heating Degree Days 3    
Growing Degree Days 12 (Base 50)    
Moisture  
Dew Point 57 °F    
Average Humidity 84    
Maximum Humidity 94    
Minimum Humidity 68    
Precipitation  
Precipitation 0.00 in - - ()
Sea Level Pressure  
Sea Level Pressure 29.91 in    
Wind  
Wind Speed 7 mph ()    
Max Wind Speed 17 mph    
Max Gust Speed -    
Visibility 5.7 miles    
Events Rain    
Averages and records for this station are not official NWS values.
T = Trace of Precipitation, MM = Missing Value Source: Averaged Metar Reports

Daily Weather History Graph

Daily Weather History Graph

Search for Another Location

Airport or City:

Trip Planner

Search our weather history database for the weather conditions in past years. The results will help you decide how hot, cold, wet, or windy it might be!

Date:

Astronomy

Jun. 07, 2014 Rise Set
Actual Time 4:33 AM BST 9:14 PM BST
Civil Twilight 3:44 AM BST 10:03 PM BST
Nautical Twilight 2:25 AM BST 11:22 PM BST
Astronomical Twilight Sun does not rise Sun does not rise
Moon 2:32 PM BST (6/7) 1:36 AM BST (6/7)
Length of Visible Light 18h 19m
Length of Day
16h 41m
Waxing Gibbous, 65% of the Moon is Illuminated
Jun 7
Waxing Gibbous
Jun 13
Full
Jun 19
Last Quarter
Jun 27
New
Jul 5
First Quarter

Hourly Weather History & Observations

Time (BST) Temp. Dew Point Humidity Pressure Visibility Wind Dir Wind Speed Gust Speed Precip Events Conditions
12:20 AM 51.8 °F 50.0 °F 94% 29.98 in 6.2 mi East 4.6 mph - N/A   Unknown
12:50 AM 51.8 °F 50.0 °F 94% 29.95 in 6.2 mi NE 6.9 mph - N/A   Unknown
1:20 AM 51.8 °F 50.0 °F 94% 29.95 in 6.2 mi East 5.8 mph - N/A   Unknown
1:50 AM 51.8 °F 50.0 °F 94% 29.95 in 6.2 mi East 6.9 mph - N/A   Unknown
2:20 AM 51.8 °F 50.0 °F 94% 29.92 in 6.2 mi ENE 6.9 mph - N/A   Unknown
2:50 AM 51.8 °F 50.0 °F 94% 29.92 in 6.2 mi East 6.9 mph - N/A   Unknown
3:20 AM 51.8 °F 50.0 °F 94% 29.92 in 6.2 mi East 6.9 mph - N/A   Unknown
3:50 AM 53.6 °F 51.8 °F 94% 29.92 in 6.2 mi East 6.9 mph - N/A   Unknown
4:20 AM 55.4 °F 53.6 °F 94% 29.92 in 6.2 mi East 5.8 mph - N/A   Unknown
4:50 AM 55.4 °F 53.6 °F 94% 29.89 in 5.6 mi East 6.9 mph - N/A   Unknown
5:20 AM 57.2 °F 55.4 °F 94% 29.89 in 6.2 mi East 9.2 mph - N/A   Unknown
5:50 AM 57.2 °F 55.4 °F 94% 29.89 in 5.6 mi East 8.1 mph - N/A   Unknown
6:20 AM 59.0 °F 57.2 °F 94% 29.89 in 5.0 mi East 9.2 mph - N/A   Unknown
6:50 AM 60.8 °F 57.2 °F 88% 29.89 in 5.6 mi East 8.1 mph - N/A   Unknown
7:50 AM 60.8 °F 57.2 °F 88% 29.89 in 5.0 mi East 10.4 mph - N/A Rain Light Rain
8:20 AM 60.8 °F 57.2 °F 88% 29.86 in 6.2 mi East 17.3 mph - N/A   Partly Cloudy
8:50 AM 62.6 °F 57.2 °F 82% 29.86 in 6.2 mi East 11.5 mph - N/A   Partly Cloudy
9:20 AM 62.6 °F 57.2 °F 82% 29.83 in 6.2 mi East 13.8 mph - N/A   Partly Cloudy
9:50 AM 64.4 °F 59.0 °F 83% 29.83 in 5.0 mi East 15.0 mph - N/A   Partly Cloudy
10:20 AM 62.6 °F 59.0 °F 88% 29.86 in 3.7 mi ESE 12.7 mph - N/A Rain Rain
10:50 AM 64.4 °F 59.0 °F 83% 29.86 in 3.7 mi ESE 8.1 mph - N/A Rain Heavy Rain Showers
11:20 AM 64.4 °F 60.8 °F 88% 29.83 in 5.6 mi East 13.8 mph - N/A   Scattered Clouds
11:50 AM 64.4 °F 59.0 °F 83% 29.92 in 4.3 mi SE 15.0 mph - N/A Rain Light Rain Showers
12:20 PM 62.6 °F 60.8 °F 94% 29.89 in 3.7 mi South 6.9 mph - N/A Rain Light Rain Showers
12:50 PM 64.4 °F 62.6 °F 94% 29.86 in 3.7 mi East 6.9 mph - N/A Rain Light Rain Showers
1:20 PM 68.0 °F 64.4 °F 88% 29.86 in 3.7 mi SE 4.6 mph - N/A   Scattered Clouds
1:50 PM 68.0 °F 62.6 °F 83% 29.86 in 6.2 mi Variable 2.3 mph - N/A   Partly Cloudy
2:20 PM 71.6 °F 64.4 °F 78% 29.86 in 6.2 mi Variable 3.5 mph - N/A   Partly Cloudy
2:50 PM 73.4 °F 64.4 °F 73% 29.89 in 6.2 mi SSW 8.1 mph - N/A   Scattered Clouds
3:20 PM 73.4 °F 64.4 °F 73% 29.86 in 6.2 mi SSW 6.9 mph - N/A   Scattered Clouds
3:50 PM 73.4 °F 62.6 °F 69% 29.86 in 6.2 mi SW 8.1 mph - N/A   Scattered Clouds
4:20 PM 73.4 °F 62.6 °F 69% 29.86 in 6.2 mi SW 12.7 mph - N/A   Mostly Cloudy
4:50 PM 73.4 °F 64.4 °F 73% 29.86 in 6.2 mi SW 10.4 mph - N/A   Scattered Clouds
5:20 PM 71.6 °F 62.6 °F 73% 29.89 in 6.2 mi West 13.8 mph - N/A   Scattered Clouds
5:50 PM 69.8 °F 60.8 °F 73% 29.92 in 6.2 mi West 12.7 mph - N/A   Scattered Clouds
6:20 PM 69.8 °F 60.8 °F 73% 29.92 in 6.2 mi WSW 10.4 mph - N/A   Partly Cloudy
6:50 PM 68.0 °F 57.2 °F 68% 29.92 in 6.2 mi WSW 9.2 mph - N/A   Partly Cloudy
7:20 PM 69.8 °F 59.0 °F 68% 29.92 in 6.2 mi West 9.2 mph - N/A   Partly Cloudy
7:50 PM 68.0 °F 57.2 °F 68% 29.95 in 6.2 mi WSW 8.1 mph - N/A   Partly Cloudy
8:20 PM 66.2 °F 57.2 °F 73% 29.95 in - WSW 5.8 mph - N/A   Clear
8:50 PM 64.4 °F 57.2 °F 77% 29.95 in - WSW 4.6 mph - N/A   Clear
9:20 PM 60.8 °F 55.4 °F 82% 29.98 in - WSW 5.8 mph - N/A   Clear
9:50 PM 59.0 °F 53.6 °F 82% 29.98 in - WSW 4.6 mph - N/A   Clear
10:20 PM 60.8 °F 55.4 °F 82% 29.98 in - SW 3.5 mph - N/A   Clear
10:50 PM 60.8 °F 53.6 °F 77% 29.98 in - SSW 3.5 mph - N/A   Clear
11:20 PM 59.0 °F 55.4 °F 88% 30.01 in - SW 3.5 mph - N/A   Clear
11:50 PM 57.2 °F 53.6 °F 88% 30.01 in - SSW 2.3 mph - N/A   Clear